Scottsbluff, NE

10:58 PM MDT on October 18, 2017 (GMT -0600)
Heilig

Weather History for KBFF - August, 2013

Change the Weather History Date:

Friday, August 30, 2013

  Actual Average Record
Temperature  
Mean Temperature 81 °F 69 °F  
Max Temperature 98 °F 85 °F 102 °F (1990)
Min Temperature 63 °F 53 °F 37 °F (1964)
Degree Days  
Heating Degree Days 0 1  
Month to date heating degree days 0 9  
Since 1 June heating degree days 23 75  
Since 1 July heating degree days 2 15  
Cooling Degree Days 16 5  
Month to date cooling degree days 311 224  
Year to date cooling degree days 877 660  
Since 1 June cooling degree days 823 637  
Growing Degree Days 30 (Base 50)    
Moisture  
Dew Point 60 °F    
Average Humidity 58    
Maximum Humidity 87    
Minimum Humidity 29    
Precipitation  
Precipitation 0.17 in 0.03 in 1.33 in (1901)
Month to date precipitation 0.92 1.26  
Year to date precipitation 7.98 12.26  
Snow  
Snow 0.00 in 0.00 in 1.00 in (1901)
Month to date snowfall 0.0 0.0  
Since 1 July snowfall 0.0 0.0  
Snow Depth 0.00 in    
Sea Level Pressure  
Sea Level Pressure 29.97 in    
Wind  
Wind Speed 6 mph (ESE)    
Max Wind Speed 36 mph    
Max Gust Speed 46 mph    
Visibility 9 miles    
Events Rain , Thunderstorm    
T = Trace of Precipitation, MM = Missing Value Source: NWS Daily Summary

Daily Weather History Graph

Daily Weather History Graph

Search for Another Location

Airport or City:

Trip Planner

Search our weather history database for the weather conditions in past years. The results will help you decide how hot, cold, wet, or windy it might be!

Date:

Astronomy

Aug. 30, 2013 Rise Set
Actual Time 6:18 AM MDT 7:30 PM MDT
Civil Twilight 5:49 AM MDT 7:59 PM MDT
Nautical Twilight 5:15 AM MDT 8:33 PM MDT
Astronomical Twilight 4:38 AM MDT 9:09 PM MDT
Moon 12:56 AM MDT (8/30) 3:50 PM MDT (8/30)
Length of Visible Light 14h 09m
Length of Day
13h 12m
Waning Crescent, 28% of the Moon is Illuminated
Aug 30
Waning Crescent
Sep 5
New
Sep 12
First Quarter
Sep 19
Full
Sep 26
Last Quarter

Hourly Weather History & Observations

Time (MDT) Temp. Heat Index Dew Point Humidity Pressure Visibility Wind Dir Wind Speed Gust Speed Precip Events Conditions
12:53 AM 71.1 °F - 59.0 °F 66% 29.96 in 10.0 mi East 4.6 mph - N/A   Clear
1:53 AM 69.1 °F - 60.1 °F 73% 29.97 in 10.0 mi ENE 3.5 mph - N/A   Clear
2:53 AM 68.0 °F - 60.1 °F 76% 29.97 in 10.0 mi NE 5.8 mph - N/A   Clear
3:53 AM 64.9 °F - 59.0 °F 81% 29.96 in 10.0 mi Calm Calm - N/A   Clear
4:53 AM 64.0 °F - 60.1 °F 87% 29.99 in 10.0 mi NNW 5.8 mph - N/A   Clear
5:53 AM 64.9 °F - 60.1 °F 84% 29.98 in 10.0 mi Calm Calm - N/A   Clear
6:53 AM 64.9 °F - 59.0 °F 81% 29.99 in 10.0 mi Calm Calm - N/A   Clear
7:53 AM 73.0 °F - 61.0 °F 66% 30.00 in 10.0 mi Calm Calm - N/A   Clear
8:53 AM 75.0 °F - 62.1 °F 64% 30.00 in 10.0 mi Calm Calm - N/A   Clear
9:53 AM 77.0 °F - 63.0 °F 62% 30.01 in 10.0 mi North 5.8 mph - N/A   Clear
10:39 AM 80.6 °F 81.8 °F 62.6 °F 54% 30.16 in 1.8 mi NNE 3.5 mph - N/A   Haze
10:53 AM 82.0 °F 83.1 °F 63.0 °F 52% 30.00 in 10.0 mi Calm Calm - N/A   Clear
11:53 AM 87.1 °F 87.8 °F 63.0 °F 44% 29.98 in 10.0 mi Variable 4.6 mph - N/A   Clear
12:53 PM 90.0 °F 90.3 °F 62.1 °F 39% 29.95 in 10.0 mi Variable 3.5 mph - N/A   Clear
1:53 PM 93.0 °F 93.8 °F 62.1 °F 36% 29.91 in 10.0 mi ENE 6.9 mph - N/A   Clear
2:53 PM 96.1 °F 95.6 °F 59.0 °F 29% 29.86 in 10.0 mi ENE 6.9 mph - N/A   Clear
3:46 PM 93.2 °F 92.6 °F 59.0 °F 32% 30.00 in 10.0 mi East 11.5 mph - N/A Thunderstorm Clear
3:53 PM 93.0 °F 92.7 °F 60.1 °F 33% 29.85 in 10.0 mi East 6.9 mph - N/A Thunderstorm Clear
4:22 PM 78.8 °F - 59.0 °F 51% 30.07 in 10.0 mi SW 20.7 mph 26.5 mph 0.00 in Rain , Thunderstorm Light Rain
4:53 PM 68.0 °F - 62.1 °F 81% 30.01 in 4.0 mi SW 15.0 mph 21.9 mph 0.05 in Rain , Thunderstorm Thunderstorms and Rain
5:06 PM 69.8 °F - 62.6 °F 78% 30.09 in 3.0 mi South 23.0 mph 28.8 mph 0.09 in Rain , Thunderstorm Thunderstorms and Rain
5:33 PM 75.2 °F - 57.2 °F 53% 30.01 in 10.0 mi SSE 32.2 mph 44.9 mph 0.12 in Rain Light Rain
5:42 PM 75.2 °F - 57.2 °F 53% 30.03 in 10.0 mi South 27.6 mph 43.7 mph 0.12 in Rain Light Rain
5:53 PM 73.0 °F - 59.0 °F 61% 29.92 in 10.0 mi South 18.4 mph 33.4 mph 0.12 in   Partly Cloudy
6:53 PM 75.0 °F - 59.0 °F 57% 29.91 in 10.0 mi South 10.4 mph - 0.00 in Rain Light Rain
7:53 PM 73.0 °F - 61.0 °F 66% 29.87 in 10.0 mi Calm Calm - 0.00 in   Clear
8:53 PM 70.0 °F - 63.0 °F 78% 29.90 in 10.0 mi NE 4.6 mph - N/A   Clear
9:53 PM 69.1 °F - 59.0 °F 70% 29.92 in 10.0 mi East 8.1 mph - N/A   Clear
10:53 PM 66.9 °F - 59.0 °F 76% 29.94 in 10.0 mi SE 9.2 mph - N/A   Clear
11:53 PM 66.0 °F - 60.1 °F 81% 29.93 in 10.0 mi East 8.1 mph - N/A   Clear